Home > Weather > Kralendijk > Past weeks

Flag for Caribbean Netherlands Weather for the Past 2 Weeks in Kralendijk, Bonaire, Caribbean Netherlands

Now
86 °F

Scattered clouds.


Feels Like: 92 °F
Forecast: N/A
Wind: 22 mph from Southeast

Location: Flamingo Airport - Bonaire

Current Time: May 2, 2016 at 4:31:31 PM

Latest Report: May 2, 2016 at 2:55 PM


Visibility: N/A

Pressure: 29.86 "Hg

Humidity: 62%

Dew Point: 72 °F

Location of KralendijkLocation

Historic Weather in Kralendijk — Graph

°F

Kralendijk Temperature Yesterday

Maximum temperature yesterday: 84 °F (at 8:55 AM)
Minimum temperature yesterday: 81 °F (at 12:55 AM)
Average temperature yesterday: 82 °F

High & Low Weather Summary for the Past Weeks

 TemperatureHumidityPressure
High90 °F (Apr 27, 1:55 PM)89% (Apr 18, 11:55 PM)29.95 "Hg (Apr 18, 11:55 PM)
Low79 °F (May 2, 12:55 AM)62% (May 2, 2:55 PM)29.71 "Hg (Apr 26, 4:55 PM)
Average83 °F79%29.83 "Hg
* Reported Apr 17 2:55 PM — May 2 2:55 PM, Kralendijk, Weather by CustomWeather, © 2016

Note: Actual official high and low records may vary slightly from our data, if they occured in-between our weather recording intervals... More about our weather records

Advertising

Kralendijk Weather History for the Previous 24 Hours

Scroll right to see more
 ConditionsComfort  
Time TempWeatherWind HumidityBarometerVisibility
2:55 PM
Mon, May 2
86 °FScattered clouds.22 mph62%29.86 "HgN/A
1:55 PM86 °FClear.22 mph66%29.89 "HgN/A
12:55 PM86 °FScattered clouds.20 mph66%29.92 "HgN/A
11:55 AM84 °FPassing clouds.20 mph70%29.92 "HgN/A
10:55 AM84 °FPassing clouds.20 mph70%29.92 "HgN/A
9:55 AM84 °FPassing clouds.20 mph70%29.92 "HgN/A
8:55 AM82 °FSunny.18 mph74%29.92 "HgN/A
7:55 AM82 °FSunny.16 mph74%29.89 "HgN/A
6:55 AM81 °FSunny.15 mph84%29.86 "HgN/A
5:55 AM81 °FClear.13 mph79%29.86 "HgN/A
4:55 AM79 °FClear.12 mph84%29.83 "HgN/A
3:55 AM79 °FClear.13 mph84%29.83 "HgN/A
2:55 AM79 °FClear.13 mph84%29.83 "HgN/A
1:55 AM79 °FClear.14 mph84%29.86 "HgN/A
12:55 AM79 °FClear.15 mph84%29.89 "HgN/A
11:55 PM
Sun, May 1
81 °FPassing clouds.15 mph79%29.89 "HgN/A
10:55 PM81 °FPassing clouds.18 mph79%29.92 "HgN/A
9:55 PM81 °FPassing clouds.20 mph79%29.89 "HgN/A
8:55 PM81 °FPassing clouds.21 mph79%29.89 "HgN/A
7:55 PM81 °FPassing clouds.21 mph79%29.89 "HgN/A
6:55 PM81 °FPassing clouds.18 mph79%29.86 "HgN/A
5:55 PM81 °FBroken clouds.21 mph79%29.83 "HgN/A
4:55 PM82 °FScattered clouds.22 mph79%29.80 "HgN/A
Weather by CustomWeather, © 2016

See weather overviewHow to use our weather pages